Regional Weather Roundup
Issued by NWS

Home | Current Version | Previous Version | Graphics & Text | Print | Product List | Glossary On
Versions: 1 2 3 4 5 6 7 8 9 10 11 12 13 14 15 16 17 18 19 20 21 22 23 24 25 26 27 28 29 30 31 32 33 34 35 36 37 38 39 40 41 42 43 44 45 46 47 48 49 50
000
ASUS45 KCYS 282010
RWRWY

WYOMING REGIONAL WEATHER ROUNDUP
NATIONAL WEATHER SERVICE CHEYENNE WY
100 PM MST FRI NOV 28 2014

NOTE:  "FAIR" INDICATES FEW OR NO CLOUDS BELOW 12,000 FEET
WITH NO SIGNIFICANT WEATHER AND/OR OBSTRUCTIONS TO VISIBILITY.

WYZ001-282100-
YELLOWSTONE NATIONAL PARK

CITY           SKY/WX    TMP DP  RH WIND       PRES   REMARKS
LK YELLOWSTONE   N/A     38  18  44 VRB7      29.85F WCI  33
W YELLOWSTONE  NOT AVBL

$$
WYZ002>013-054>058-071-098>099-282100-
NORTHERN WYOMING

CITY           SKY/WX    TMP DP  RH WIND       PRES   REMARKS
JACKSON        CLOUDY    45  21  39 S10       29.87F
CODY           PTSUNNY   52  25  35 SW30G52   29.64R
GREYBULL       PTSUNNY   40  29  64 SE5       29.70F
WORLAND        PTSUNNY   34  25  69 N6        29.71F WCI  29
SHERIDAN       CLOUDY    62  21  20 SW13G31   29.57F
BUFFALO        PTSUNNY   55  22  27 MISG      29.63F
GILLETTE       MOSUNNY   54  24  31 SW16      29.62F
HULETT           N/A    N/A N/A N/A MISG        N/A
NEWCASTLE      FAIR      50  25  37 SE3       29.68F

$$
WYZ014>020-022>026-101>103-282100-
CENTRAL WYOMING

CITY           SKY/WX    TMP DP  RH WIND       PRES   REMARKS
BIG PINEY      PTSUNNY   52  13  21 W22       29.93F
PINEDALE       CLOUDY    41  21  45 SE7       29.95F
DUBOIS         FAIR      45  14  29 NW16G25   29.84F
LANDER         PTSUNNY   61   9  12 NW16G29   29.78F
RIVERTON       PTSUNNY   54  16  22 W32       29.78F
CASPER         PTSUNNY   54  18  24 SW22G35   29.76F
DOUGLAS        CLOUDY    62  16  16 W35G48    29.72F

$$
WYZ021-027>030-104>119-282100-
SOUTHERN WYOMING

CITY           SKY/WX    TMP DP  RH WIND       PRES   REMARKS
EVANSTON       PTSUNNY   51  21  30 SW15      29.98F
FORT BRIDGER   FAIR      58  13  17 W28G39    29.99F
ROCK SPRINGS   PTSUNNY   53  16  23 NW9       29.97F
DIXON          FAIR      52  19  26 SW15G22   30.04F
RAWLINS        PTSUNNY   51  14  22 SW30G37   29.92F
SARATOGA       FAIR      54  12  19 SW18G29   29.97F
LARAMIE        PTSUNNY   53  11  18 W21G29    29.93F
CHEYENNE       PTSUNNY   58  10  15 W23G41    29.85F
TORRINGTON     CLOUDY    65  15  14 W24G33    29.72F
PINE BLUFFS    FAIR      63  14  15 W18       29.82F

$$



USA.gov is the U.S. government's official web portal to all federal, state and local government web resources and services.